TimeCST,TemperatureF,Dew PointF,Humidity,Sea Level PressureIn,VisibilityMPH,Wind Direction,Wind SpeedMPH,Gust SpeedMPH,PrecipitationIn,Events,Conditions,WindDirDegrees,DateUTC
12:53 AM,39.0,21.9,50,30.25,10.0,WSW,6.9,-,N/A,,Partly Cloudy,250,2013-01-17 06:53:00
1:53 AM,41.0,19.9,43,30.27,10.0,WNW,6.9,-,N/A,,Partly Cloudy,290,2013-01-17 07:53:00
2:53 AM,39.9,19.9,45,30.27,10.0,NW,6.9,-,N/A,,Clear,310,2013-01-17 08:53:00
3:53 AM,37.9,21.9,53,30.28,10.0,NW,8.1,-,N/A,,Clear,320,2013-01-17 09:53:00
4:53 AM,39.0,23.0,53,30.30,10.0,NW,11.5,-,N/A,,Clear,310,2013-01-17 10:53:00
6:53 AM,36.0,25.0,64,30.34,10.0,NNW,3.5,-,N/A,,Clear,340,2013-01-17 12:53:00
7:53 AM,37.0,28.0,70,30.37,10.0,NW,8.1,-,N/A,,Clear,320,2013-01-17 13:53:00
8:53 AM,42.1,30.0,62,30.40,10.0,NNW,10.4,-,N/A,,Clear,330,2013-01-17 14:53:00
9:53 AM,48.0,30.9,52,30.44,10.0,North,12.7,-,N/A,,Clear,350,2013-01-17 15:53:00
10:53 AM,51.1,30.9,46,30.45,10.0,NNW,11.5,-,N/A,,Clear,330,2013-01-17 16:53:00
11:53 AM,54.0,30.0,40,30.44,10.0,North,10.4,21.9,N/A,,Clear,10,2013-01-17 17:53:00
12:53 PM,57.0,30.9,37,30.42,10.0,North,9.2,-,N/A,,Clear,360,2013-01-17 18:53:00
1:53 PM,59.0,30.9,35,30.41,10.0,NNE,11.5,18.4,N/A,,Clear,20,2013-01-17 19:53:00
2:53 PM,60.1,28.9,31,30.40,10.0,North,10.4,-,N/A,,Clear,350,2013-01-17 20:53:00
3:53 PM,60.1,28.9,31,30.40,10.0,North,9.2,-,N/A,,Clear,10,2013-01-17 21:53:00
4:53 PM,57.9,28.9,33,30.42,10.0,North,9.2,-,N/A,,Clear,360,2013-01-17 22:53:00
5:53 PM,53.1,28.9,40,30.43,10.0,NNW,6.9,-,N/A,,Clear,340,2013-01-17 23:53:00
6:53 PM,50.0,28.9,44,30.45,10.0,North,4.6,-,N/A,,Clear,360,2013-01-18 00:53:00
7:53 PM,48.0,30.0,50,30.46,10.0,North,6.9,-,N/A,,Clear,350,2013-01-18 01:53:00
8:53 PM,46.9,30.0,52,30.48,10.0,NNW,6.9,-,N/A,,Clear,340,2013-01-18 02:53:00
9:53 PM,46.0,30.0,54,30.48,10.0,NNW,8.1,-,N/A,,Clear,340,2013-01-18 03:53:00
10:53 PM,42.1,30.0,62,30.49,10.0,North,5.8,-,N/A,,Clear,360,2013-01-18 04:53:00
11:53 PM,39.9,30.0,68,30.49,10.0,North,3.5,-,N/A,,Clear,10,2013-01-18 05:53:00